This demonstration page uses our WeatherBlox Daily Observations layout. Learn more.

Left ArrowRight Arrow

39.08367, -84.50855

Hourly Observations for January 13, 2015

Temp ( °F °C ) Dew Point ( °F °C ) Humidity (%) Winds ( mph kmh ) Pressure ( in mb ) Visibility ( mi km ) Precip ( " mm )
12:53 am 00:53 Cloudy 26 -3.3 19 -7.2 75 75 NNE 14 22 30.53 1034 10 16.0934 0 0
1:53 am 01:53 Cloudy 25 -3.9 17 -8.3 72 72 NNE 14 22 30.54 1034 10 16.0934 0 0
2:53 am 02:53 Cloudy 25 -3.9 16 -8.9 69 69 NE 12 19 30.57 1035 10 16.0934 0 0
3:53 am 03:53 Cloudy 23 -5 15 -9.4 72 72 NNE 14 22 30.59 1036 10 16.0934 0 0
4:53 am 04:53 Cloudy 23 -5 15 -9.4 72 72 NE 12 19 30.6 1036 10 16.0934 0 0
5:53 am 05:53 Cloudy 23 -5 16 -8.9 74 74 NNE 12 19 30.6 1036 10 16.0934 0 0
6:53 am 06:53 Cloudy 23 -5 16 -8.9 74 74 NNE 10 17 30.61 1037 10 16.0934 0 0
7:53 am 07:53 Cloudy 23 -5 15 -9.4 72 72 NE 14 22 30.63 1037 10 16.0934 0 0
8:53 am 08:53 Cloudy 22 -5.6 15 -9.4 75 75 NNE 14 22 30.63 1037 10 16.0934 0 0
9:53 am 09:53 Mostly Cloudy 22 -5.6 13 -10.6 68 68 NE 15 24 30.64 1038 10 16.0934 0 0
10:19 am 10:19 Partly Cloudy 23 -5 14 -10 68 68 NE 14 22 30.65 1038 10 16.0934 0 0
10:53 am 10:53 Partly Cloudy 23 -5 13 -10.6 65 65 ENE 15 24 30.64 1038 10 16.0934 0 0
11:53 am 11:53 Sunny 26 -3.3 13 -10.6 57 57 NE 9 15 30.61 1037 10 16.0934 0 0
12:53 pm 12:53 Sunny 25 -3.9 12 -11.1 58 58 ENE 14 22 30.58 1036 10 16.0934 0 0
1:53 pm 13:53 Sunny 26 -3.3 13 -10.6 57 57 ENE 12 19 30.55 1035 10 16.0934 0 0
2:53 pm 14:53 Sunny 27 -2.8 14 -10 58 58 NE 9 15 30.53 1034 10 16.0934 0 0
3:53 pm 15:53 Sunny 27 -2.8 14 -10 58 58 ENE 7 11 30.53 1034 10 16.0934 0 0
4:53 pm 16:53 Mostly Cloudy 26 -3.3 15 -9.4 63 63 ENE 9 15 30.52 1033 10 16.0934 0 0
5:53 pm 17:53 Partly Cloudy 24 -4.4 14 -10 65 65 NNE 10 17 30.52 1034 10 16.0934 0 0
6:53 pm 18:53 Cloudy 24 -4.4 14 -10 65 65 NE 7 11 30.52 1034 10 16.0934 0 0
7:53 pm 19:53 Cloudy 24 -4.4 14 -10 65 65 NE 8 13 30.51 1033 10 16.0934 0 0
8:53 pm 20:53 Cloudy 23 -5 14 -10 68 68 NNE 8 13 30.5 1033 10 16.0934 0 0
9:53 pm 21:53 Cloudy 22 -5.6 14 -10 71 71 NNE 6 9 30.49 1032 10 16.0934 0 0
10:53 pm 22:53 Cloudy 21 -6.1 13 -10.6 71 71 N 7 11 30.48 1032 10 16.0934 0 0
11:53 pm 23:53 Cloudy 20 -6.7 12 -11.1 71 71 NE 7 11 30.45 1031 10 16.0934 0 0

Powered by AerisWeather